Alamosa, CO

1:30 AM MDT on May 01, 2017 (GMT -0600)
Alamosa | | Change Station

Elev 7543 ft 37.46 °N, 105.86 °W | Updated 20 seconds ago

Clear
Clear
34.2 °F
Feels Like 34 °F
N
0.0
Wind Variable Wind from NNE

Today
High -- | Low -- °F
--% Chance of Precip.
Yesterday
High -- | Low -- °F
Precip. -- in
Pressure 29.93 in
Visibility 10.0 miles
Clouds Clear
Windchill 34 °F
Dew Point 20 °F
Humidity 55%
Rainfall 0.00 in
Snow Depth Not available.
6:08 AM 7:53 PM
Waxing Crescent, 30% visible
METAR KALS 010652Z AUTO 35005KT 10SM CLR 04/M08 A3006 RMK AO2 SLP135 T00391078 401441083
Pressure 29.93 in
Visibility 10.0 miles
Clouds Clear
Windchill 34 °F
Dew Point 20 °F
Humidity 55%
Rainfall 0.00 in
Snow Depth Not available.
6:08 AM 7:53 PM
Waxing Crescent, 30% visible
METAR KALS 010652Z AUTO 35005KT 10SM CLR 04/M08 A3006 RMK AO2 SLP135 T00391078 401441083

Get Severe Weather Alerts

Thanks for signing up!

Be on the lookout for a verification email in your inbox.

You'll start receiving the daily forecast at 8 AM.

×

10-Day Weather Forecast

Almanac

Astronomy

May. 01, 2017 Rise Set
Actual Time
Civil Twilight
Nautical Twilight
Astronomical Twilight
Moon
Length of Visible Light
Length of Day
Tomorrow will be .
, % of the Moon is Illuminated

Today's Extremes

State Highs State Lows

Community

WunderPhotos

WunderBlog® & News

Nearby

Air Quality

  Air Quality AQ Index Pollutant
Not available.

Snow Depth

Station Depth Elevation

Earthquake Activity

City Distance Mag. Time & Date
Minimum magnitude displayed is 2.5.

Coastal Water Temperatures

Place Temperature

Stations

Nearby Weather Stations

Station Location Temp. Windchill Dew Point Humidity Wind Precip. Elev Updated Type
                   

Watches & Warnings

There are currently no watches in effect.